Time,TemperatureF,DewpointF,PressureIn,WindDirection,WindDirectionDegrees,WindSpeedMPH,WindSpeedGustMPH,Humidity,HourlyPrecipIn,Conditions,Clouds,dailyrainin,SoftwareType,DateUTC
2013-03-21 00:03:00,25.0,-99.9,-100.00,NNW,334,9.0,-999.0,-999,0.00,,,0.00,,2013-03-21 05:03:00,
2013-03-21 00:13:00,25.0,-99.9,-100.00,NNW,334,9.0,-999.0,-999,0.00,,,0.00,,2013-03-21 05:13:00,
2013-03-21 00:23:00,25.0,-99.9,-100.00,NNW,334,9.0,-999.0,-999,0.00,,,0.00,,2013-03-21 05:23:00,
2013-03-21 00:33:00,25.0,-99.9,-100.00,NNW,339,7.0,-999.0,-999,0.00,,,0.00,,2013-03-21 05:33:00,
2013-03-21 00:44:00,25.0,-99.9,-100.00,NNW,339,7.0,-999.0,-999,0.00,,,0.00,,2013-03-21 05:44:00,
2013-03-21 00:52:00,25.0,-99.9,-100.00,NNW,339,7.0,-999.0,-999,0.00,,,0.00,,2013-03-21 05:52:00,
2013-03-21 01:03:00,25.0,-99.9,-100.00,NNW,342,6.0,-999.0,-999,0.00,,,0.00,,2013-03-21 06:03:00,
2013-03-21 01:12:00,25.0,-99.9,-100.00,NNW,342,6.0,-999.0,-999,0.00,,,0.00,,2013-03-21 06:12:00,
2013-03-21 01:23:00,25.0,-99.9,-100.00,NNW,342,6.0,-999.0,-999,0.00,,,0.00,,2013-03-21 06:23:00,
2013-03-21 01:32:00,24.0,-99.9,-100.00,NW,321,7.0,-999.0,-999,0.00,,,0.00,,2013-03-21 06:32:00,
2013-03-21 01:43:00,24.0,-99.9,-100.00,NW,321,7.0,-999.0,-999,0.00,,,0.00,,2013-03-21 06:43:00,
2013-03-21 01:52:00,24.0,-99.9,-100.00,NW,321,7.0,-999.0,-999,0.00,,,0.00,,2013-03-21 06:52:00,
2013-03-21 02:02:00,23.0,-99.9,-100.00,NW,319,7.0,-999.0,-999,0.00,,,0.00,,2013-03-21 07:02:00,
2013-03-21 02:13:00,23.0,-99.9,-100.00,NW,319,7.0,-999.0,-999,0.00,,,0.00,,2013-03-21 07:13:00,
2013-03-21 02:22:00,23.0,-99.9,-100.00,NW,319,7.0,-999.0,-999,0.00,,,0.00,,2013-03-21 07:22:00,
2013-03-21 02:33:00,23.0,-99.9,-100.00,NW,320,6.0,-999.0,-999,0.00,,,0.00,,2013-03-21 07:33:00,
2013-03-21 02:43:00,23.0,-99.9,-100.00,NW,320,6.0,-999.0,-999,0.00,,,0.00,,2013-03-21 07:43:00,
2013-03-21 02:53:00,23.0,-99.9,-100.00,NW,320,6.0,-999.0,-999,0.00,,,0.00,,2013-03-21 07:53:00,
2013-03-21 03:02:00,22.0,-99.9,-100.00,NNW,337,5.0,-999.0,-999,0.00,,,0.00,,2013-03-21 08:02:00,
2013-03-21 03:13:00,22.0,-99.9,-100.00,NNW,337,5.0,-999.0,-999,0.00,,,0.00,,2013-03-21 08:13:00,
2013-03-21 03:23:00,22.0,-99.9,-100.00,NNW,337,5.0,-999.0,-999,0.00,,,0.00,,2013-03-21 08:23:00,
2013-03-21 03:33:00,22.0,-99.9,-100.00,NNW,342,5.0,-999.0,-999,0.00,,,0.00,,2013-03-21 08:33:00,
2013-03-21 03:43:00,22.0,-99.9,-100.00,NNW,342,5.0,-999.0,-999,0.00,,,0.00,,2013-03-21 08:43:00,
2013-03-21 03:52:00,22.0,-99.9,-100.00,NNW,342,5.0,-999.0,-999,0.00,,,0.00,,2013-03-21 08:52:00,
2013-03-21 04:02:00,22.0,-99.9,-100.00,North,6,10.0,-999.0,-999,0.00,,,0.00,,2013-03-21 09:02:00,
2013-03-21 04:11:00,22.0,-99.9,-100.00,North,6,10.0,-999.0,-999,0.00,,,0.00,,2013-03-21 09:11:00,
2013-03-21 04:22:00,22.0,-99.9,-100.00,North,6,10.0,-999.0,-999,0.00,,,0.00,,2013-03-21 09:22:00,
2013-03-21 04:33:00,22.0,-99.9,-100.00,NNE,16,9.0,-999.0,-999,0.00,,,0.00,,2013-03-21 09:33:00,
2013-03-21 04:43:00,22.0,-99.9,-100.00,NNE,16,9.0,-999.0,-999,0.00,,,0.00,,2013-03-21 09:43:00,
2013-03-21 04:53:00,22.0,-99.9,-100.00,NNE,16,9.0,-999.0,-999,0.00,,,0.00,,2013-03-21 09:53:00,
2013-03-21 05:03:00,21.0,-99.9,-100.00,North,5,9.0,-999.0,-999,0.00,,,0.00,,2013-03-21 10:03:00,
2013-03-21 05:12:00,21.0,-99.9,-100.00,North,5,9.0,-999.0,-999,0.00,,,0.00,,2013-03-21 10:12:00,
2013-03-21 05:23:00,21.0,-99.9,-100.00,North,5,9.0,-999.0,-999,0.00,,,0.00,,2013-03-21 10:23:00,
2013-03-21 05:34:00,20.0,-99.9,-100.00,North,4,10.0,-999.0,-999,0.00,,,0.00,,2013-03-21 10:34:00,
2013-03-21 05:43:00,20.0,-99.9,-100.00,North,4,10.0,-999.0,-999,0.00,,,0.00,,2013-03-21 10:43:00,
2013-03-21 05:53:00,20.0,-99.9,-100.00,North,4,10.0,-999.0,-999,0.00,,,0.00,,2013-03-21 10:53:00,
2013-03-21 06:00:00,20.0,-99.9,-100.00,NNE,22,8.0,-999.0,-999,0.00,,,0.00,,2013-03-21 11:00:00,
2013-03-21 06:03:00,20.0,-99.9,-100.00,NNE,25,10.0,-999.0,-999,0.00,,,0.00,,2013-03-21 11:03:00,
2013-03-21 06:13:00,20.0,-99.9,-100.00,NNE,25,10.0,-999.0,-999,0.00,,,0.00,,2013-03-21 11:13:00,
2013-03-21 06:23:00,20.0,-99.9,-100.00,NNE,25,10.0,-999.0,-999,0.00,,,0.00,,2013-03-21 11:23:00,
2013-03-21 06:33:00,20.0,-99.9,-100.00,NNE,22,8.0,-999.0,-999,0.00,,,0.00,,2013-03-21 11:33:00,
2013-03-21 06:43:00,20.0,-99.9,-100.00,NNE,22,8.0,-999.0,-999,0.00,,,0.00,,2013-03-21 11:43:00,
2013-03-21 06:53:00,20.0,-99.9,-100.00,NNE,22,8.0,-999.0,-999,0.00,,,0.00,,2013-03-21 11:53:00,
2013-03-21 07:33:00,19.0,-99.9,-100.00,North,4,6.0,-999.0,-999,0.00,,,0.00,,2013-03-21 12:33:00,
2013-03-21 07:44:00,19.0,-99.9,-100.00,North,4,6.0,-999.0,-999,0.00,,,0.00,,2013-03-21 12:44:00,
2013-03-21 07:53:00,19.0,-99.9,-100.00,North,4,6.0,-999.0,-999,0.00,,,0.00,,2013-03-21 12:53:00,
2013-03-21 08:03:00,19.0,-99.9,-100.00,NNE,12,4.0,-999.0,-999,0.00,,,0.00,,2013-03-21 13:03:00,
2013-03-21 08:13:00,19.0,-99.9,-100.00,NNE,12,4.0,-999.0,-999,0.00,,,0.00,,2013-03-21 13:13:00,
2013-03-21 08:22:00,19.0,-99.9,-100.00,NNE,12,4.0,-999.0,-999,0.00,,,0.00,,2013-03-21 13:22:00,
2013-03-21 08:33:00,20.0,-99.9,-100.00,NNE,22,3.0,-999.0,-999,0.00,,,0.00,,2013-03-21 13:33:00,
2013-03-21 08:43:00,20.0,-99.9,-100.00,NNE,22,3.0,-999.0,-999,0.00,,,0.00,,2013-03-21 13:43:00,
2013-03-21 08:53:00,20.0,-99.9,-100.00,NNE,22,3.0,-999.0,-999,0.00,,,0.00,,2013-03-21 13:53:00,
2013-03-21 09:02:00,20.0,-99.9,-100.00,NNE,23,2.0,-999.0,-999,0.00,,,0.00,,2013-03-21 14:02:00,
2013-03-21 09:12:00,20.0,-99.9,-100.00,NNE,23,2.0,-999.0,-999,0.00,,,0.00,,2013-03-21 14:12:00,
2013-03-21 09:22:00,20.0,-99.9,-100.00,NNE,23,2.0,-999.0,-999,0.00,,,0.00,,2013-03-21 14:22:00,
2013-03-21 09:32:00,21.0,-99.9,-100.00,North,3,1.0,-999.0,-999,0.00,,,0.00,,2013-03-21 14:32:00,
2013-03-21 09:43:00,21.0,-99.9,-100.00,North,3,1.0,-999.0,-999,0.00,,,0.00,,2013-03-21 14:43:00,
2013-03-21 09:52:00,21.0,-99.9,-100.00,North,3,1.0,-999.0,-999,0.00,,,0.00,,2013-03-21 14:52:00,
2013-03-21 10:04:00,20.0,-99.9,-100.00,North,350,2.0,-999.0,-999,0.00,,,0.00,,2013-03-21 15:04:00,
2013-03-21 10:13:00,20.0,-99.9,-100.00,North,350,2.0,-999.0,-999,0.00,,,0.00,,2013-03-21 15:13:00,
2013-03-21 10:22:00,20.0,-99.9,-100.00,North,350,2.0,-999.0,-999,0.00,,,0.00,,2013-03-21 15:22:00,
2013-03-21 10:33:00,21.0,-99.9,-100.00,NNW,332,2.0,-999.0,-999,0.00,,,0.00,,2013-03-21 15:33:00,
2013-03-21 10:43:00,21.0,-99.9,-100.00,NNW,332,2.0,-999.0,-999,0.00,,,0.00,,2013-03-21 15:43:00,
2013-03-21 10:53:00,21.0,-99.9,-100.00,NNW,332,2.0,-999.0,-999,0.00,,,0.00,,2013-03-21 15:53:00,
2013-03-21 11:00:00,22.0,-99.9,-100.00,North,351,4.0,-999.0,-999,0.00,,,0.00,,2013-03-21 16:00:00,
2013-03-21 11:03:00,23.0,-99.9,-100.00,East,84,2.0,-999.0,-999,0.00,,,0.00,,2013-03-21 16:03:00,
2013-03-21 11:13:00,23.0,-99.9,-100.00,East,84,2.0,-999.0,-999,0.00,,,0.00,,2013-03-21 16:13:00,
2013-03-21 11:23:00,23.0,-99.9,-100.00,East,84,2.0,-999.0,-999,0.00,,,0.00,,2013-03-21 16:23:00,
2013-03-21 11:33:00,22.0,-99.9,-100.00,North,351,4.0,-999.0,-999,0.00,,,0.00,,2013-03-21 16:33:00,
2013-03-21 11:43:00,22.0,-99.9,-100.00,North,351,4.0,-999.0,-999,0.00,,,0.00,,2013-03-21 16:43:00,
2013-03-21 11:53:00,22.0,-99.9,-100.00,North,351,4.0,-999.0,-999,0.00,,,0.00,,2013-03-21 16:53:00,
2013-03-21 12:12:00,24.0,-99.9,-100.00,NNW,340,2.0,-999.0,-999,0.00,,,0.00,,2013-03-21 17:12:00,
2013-03-21 12:23:00,24.0,-99.9,-100.00,NNW,340,2.0,-999.0,-999,0.00,,,0.00,,2013-03-21 17:23:00,
2013-03-21 12:33:00,25.0,-99.9,-100.00,North,349,4.0,-999.0,-999,0.00,,,0.00,,2013-03-21 17:33:00,
2013-03-21 12:43:00,25.0,-99.9,-100.00,North,349,4.0,-999.0,-999,0.00,,,0.00,,2013-03-21 17:43:00,
2013-03-21 12:53:00,25.0,-99.9,-100.00,North,349,4.0,-999.0,-999,0.00,,,0.00,,2013-03-21 17:53:00,
2013-03-21 13:00:00,28.0,-99.9,-100.00,West,266,3.0,-999.0,-999,0.00,,,0.00,,2013-03-21 18:00:00,
2013-03-21 13:02:00,27.0,-99.9,-100.00,WNW,294,2.0,-999.0,-999,0.00,,,0.00,,2013-03-21 18:02:00,
2013-03-21 13:12:00,27.0,-99.9,-100.00,WNW,294,2.0,-999.0,-999,0.00,,,0.00,,2013-03-21 18:12:00,
2013-03-21 13:23:00,27.0,-99.9,-100.00,WNW,294,2.0,-999.0,-999,0.00,,,0.00,,2013-03-21 18:23:00,
2013-03-21 13:33:00,28.0,-99.9,-100.00,West,266,3.0,-999.0,-999,0.00,,,0.00,,2013-03-21 18:33:00,
2013-03-21 13:43:00,28.0,-99.9,-100.00,West,266,3.0,-999.0,-999,0.00,,,0.00,,2013-03-21 18:43:00,
2013-03-21 13:53:00,28.0,-99.9,-100.00,West,266,3.0,-999.0,-999,0.00,,,0.00,,2013-03-21 18:53:00,
2013-03-21 14:32:00,29.0,-99.9,-100.00,NNW,343,4.0,-999.0,-999,0.00,,,0.00,,2013-03-21 19:32:00,
2013-03-21 14:43:00,29.0,-99.9,-100.00,NNW,343,4.0,-999.0,-999,0.00,,,0.00,,2013-03-21 19:43:00,
2013-03-21 14:53:00,29.0,-99.9,-100.00,NNW,343,4.0,-999.0,-999,0.00,,,0.00,,2013-03-21 19:53:00,
2013-03-21 15:02:00,30.0,-99.9,-100.00,NNW,345,4.0,-999.0,-999,0.00,,,0.00,,2013-03-21 20:02:00,
2013-03-21 15:13:00,30.0,-99.9,-100.00,NNW,345,4.0,-999.0,-999,0.00,,,0.00,,2013-03-21 20:13:00,
2013-03-21 15:23:00,30.0,-99.9,-100.00,NNW,345,4.0,-999.0,-999,0.00,,,0.00,,2013-03-21 20:23:00,
2013-03-21 15:33:00,33.0,-99.9,-100.00,WSW,255,2.0,-999.0,-999,0.00,,,0.00,,2013-03-21 20:33:00,
2013-03-21 15:43:00,33.0,-99.9,-100.00,WSW,255,2.0,-999.0,-999,0.00,,,0.00,,2013-03-21 20:43:00,
2013-03-21 15:53:00,33.0,-99.9,-100.00,WSW,255,2.0,-999.0,-999,0.00,,,0.00,,2013-03-21 20:53:00,
2013-03-21 16:03:00,33.0,-99.9,-100.00,WSW,257,3.0,-999.0,-999,0.00,,,0.00,,2013-03-21 21:03:00,
2013-03-21 16:12:00,33.0,-99.9,-100.00,WSW,257,3.0,-999.0,-999,0.00,,,0.00,,2013-03-21 21:12:00,
2013-03-21 16:23:00,33.0,-99.9,-100.00,WSW,257,3.0,-999.0,-999,0.00,,,0.00,,2013-03-21 21:23:00,
2013-03-21 16:33:00,32.0,-99.9,-100.00,NW,318,2.0,-999.0,-999,0.00,,,0.00,,2013-03-21 21:33:00,
2013-03-21 16:43:00,32.0,-99.9,-100.00,NW,318,2.0,-999.0,-999,0.00,,,0.00,,2013-03-21 21:43:00,
2013-03-21 16:53:00,32.0,-99.9,-100.00,NW,318,2.0,-999.0,-999,0.00,,,0.00,,2013-03-21 21:53:00,
2013-03-21 17:00:00,39.0,-99.9,-100.00,South,172,2.0,-999.0,-999,0.00,,,0.00,,2013-03-21 22:00:00,
2013-03-21 17:03:00,34.0,-99.9,-100.00,NNW,334,3.0,-999.0,-999,0.00,,,0.00,,2013-03-21 22:03:00,
2013-03-21 17:13:00,34.0,-99.9,-100.00,NNW,334,3.0,-999.0,-999,0.00,,,0.00,,2013-03-21 22:13:00,
2013-03-21 17:23:00,34.0,-99.9,-100.00,NNW,334,3.0,-999.0,-999,0.00,,,0.00,,2013-03-21 22:23:00,
2013-03-21 17:34:00,39.0,-99.9,-100.00,South,172,2.0,-999.0,-999,0.00,,,0.00,,2013-03-21 22:34:00,
2013-03-21 17:43:00,39.0,-99.9,-100.00,South,172,2.0,-999.0,-999,0.00,,,0.00,,2013-03-21 22:43:00,
2013-03-21 17:53:00,39.0,-99.9,-100.00,South,172,2.0,-999.0,-999,0.00,,,0.00,,2013-03-21 22:53:00,
2013-03-21 18:33:00,36.0,-99.9,-100.00,SE,135,3.0,-999.0,-999,0.00,,,0.00,,2013-03-21 23:33:00,
2013-03-21 18:43:00,36.0,-99.9,-100.00,SE,135,3.0,-999.0,-999,0.00,,,0.00,,2013-03-21 23:43:00,
2013-03-21 18:53:00,36.0,-99.9,-100.00,SE,135,3.0,-999.0,-999,0.00,,,0.00,,2013-03-21 23:53:00,
2013-03-21 19:00:00,34.0,-99.9,-100.00,SW,228,4.0,-999.0,-999,0.00,,,0.00,,2013-03-22 00:00:00,
2013-03-21 19:03:00,36.0,-99.9,-100.00,South,177,2.0,-999.0,-999,0.00,,,0.00,,2013-03-22 00:03:00,
2013-03-21 19:13:00,36.0,-99.9,-100.00,South,177,2.0,-999.0,-999,0.00,,,0.00,,2013-03-22 00:13:00,
2013-03-21 19:22:00,36.0,-99.9,-100.00,South,177,2.0,-999.0,-999,0.00,,,0.00,,2013-03-22 00:22:00,
2013-03-21 19:32:00,34.0,-99.9,-100.00,SW,228,4.0,-999.0,-999,0.00,,,0.00,,2013-03-22 00:32:00,
2013-03-21 19:42:00,34.0,-99.9,-100.00,SW,228,4.0,-999.0,-999,0.00,,,0.00,,2013-03-22 00:42:00,
2013-03-21 19:53:00,34.0,-99.9,-100.00,SW,228,4.0,-999.0,-999,0.00,,,0.00,,2013-03-22 00:53:00,
2013-03-21 20:33:00,31.0,-99.9,-100.00,South,172,0.0,-999.0,-999,0.00,,,0.00,,2013-03-22 01:33:00,
2013-03-21 20:43:00,31.0,-99.9,-100.00,South,172,0.0,-999.0,-999,0.00,,,0.00,,2013-03-22 01:43:00,
2013-03-21 20:53:00,31.0,-99.9,-100.00,South,172,0.0,-999.0,-999,0.00,,,0.00,,2013-03-22 01:53:00,
2013-03-21 21:03:00,30.0,-99.9,-100.00,South,170,0.0,-999.0,-999,0.00,,,0.00,,2013-03-22 02:03:00,
2013-03-21 21:12:00,30.0,-99.9,-100.00,South,170,0.0,-999.0,-999,0.00,,,0.00,,2013-03-22 02:12:00,
2013-03-21 21:23:00,30.0,-99.9,-100.00,South,170,0.0,-999.0,-999,0.00,,,0.00,,2013-03-22 02:23:00,
2013-03-21 21:32:00,30.0,-99.9,-100.00,SE,134,0.0,-999.0,-999,0.00,,,0.00,,2013-03-22 02:32:00,
2013-03-21 21:43:00,30.0,-99.9,-100.00,SE,134,0.0,-999.0,-999,0.00,,,0.00,,2013-03-22 02:43:00,
2013-03-21 21:53:00,30.0,-99.9,-100.00,SE,134,0.0,-999.0,-999,0.00,,,0.00,,2013-03-22 02:53:00,
2013-03-21 22:02:00,31.0,-99.9,-100.00,East,95,1.0,-999.0,-999,0.00,,,0.00,,2013-03-22 03:02:00,
2013-03-21 22:12:00,31.0,-99.9,-100.00,East,95,1.0,-999.0,-999,0.00,,,0.00,,2013-03-22 03:12:00,
2013-03-21 22:22:00,31.0,-99.9,-100.00,East,95,1.0,-999.0,-999,0.00,,,0.00,,2013-03-22 03:22:00,
2013-03-21 22:30:00,30.0,-99.9,-100.00,East,83,3.0,-999.0,-999,0.00,,,0.00,,2013-03-22 03:30:00,
2013-03-21 22:33:00,31.0,-99.9,-100.00,ENE,76,3.0,-999.0,-999,0.00,,,0.00,,2013-03-22 03:33:00,
2013-03-21 22:43:00,31.0,-99.9,-100.00,ENE,76,3.0,-999.0,-999,0.00,,,0.00,,2013-03-22 03:43:00,
2013-03-21 22:53:00,31.0,-99.9,-100.00,ENE,76,3.0,-999.0,-999,0.00,,,0.00,,2013-03-22 03:53:00,
2013-03-21 23:00:00,30.0,-99.9,-100.00,East,79,3.0,-999.0,-999,0.00,,,0.00,,2013-03-22 04:00:00,
2013-03-21 23:04:00,30.0,-99.9,-100.00,East,83,3.0,-999.0,-999,0.00,,,0.00,,2013-03-22 04:04:00,
2013-03-21 23:13:00,30.0,-99.9,-100.00,East,83,3.0,-999.0,-999,0.00,,,0.00,,2013-03-22 04:13:00,
2013-03-21 23:23:00,30.0,-99.9,-100.00,East,83,3.0,-999.0,-999,0.00,,,0.00,,2013-03-22 04:23:00,
2013-03-21 23:43:00,30.0,-99.9,-100.00,East,79,3.0,-999.0,-999,0.00,,,0.00,,2013-03-22 04:43:00,
2013-03-21 23:53:00,30.0,-99.9,-100.00,East,79,3.0,-999.0,-999,0.00,,,0.00,,2013-03-22 04:53:00,